Time,TemperatureF,DewpointF,PressureIn,WindDirection,WindDirectionDegrees,WindSpeedMPH,WindSpeedGustMPH,Humidity,HourlyPrecipIn,Conditions,Clouds,dailyrainin,SoftwareType,DateUTC
2013-01-03 00:04:00,52.9,51.2,30.01,NE,45,4.7,-999.0,94,-99.99,,,0.00,Acu-Link.com,2013-01-03 05:04:00,
2013-01-03 00:19:00,52.7,51.0,30.00,ENE,67,2.7,-999.0,94,-99.99,,,0.00,Acu-Link.com,2013-01-03 05:19:00,
2013-01-03 00:35:00,52.5,51.1,29.99,NNE,22,3.2,-999.0,95,-99.99,,,0.00,Acu-Link.com,2013-01-03 05:35:00,
2013-01-03 00:50:00,52.5,51.1,29.98,NE,45,4.7,-999.0,95,-99.99,,,0.00,Acu-Link.com,2013-01-03 05:50:00,
2013-01-03 01:05:00,52.3,50.9,29.98,ENE,67,4.7,-999.0,95,-99.99,,,0.00,Acu-Link.com,2013-01-03 06:05:00,
2013-01-03 01:20:00,52.2,51.1,29.97,ENE,67,3.7,-999.0,96,-99.99,,,0.00,Acu-Link.com,2013-01-03 06:20:00,
2013-01-03 01:36:00,52.2,51.1,29.97,ESE,112,3.7,-999.0,96,-99.99,,,0.00,Acu-Link.com,2013-01-03 06:36:00,
2013-01-03 01:51:00,52.0,50.9,29.97,NE,45,3.7,-999.0,96,-99.99,,,0.00,Acu-Link.com,2013-01-03 06:51:00,
2013-01-03 02:06:00,51.6,50.8,29.98,East,90,1.7,-999.0,97,-99.99,,,0.00,Acu-Link.com,2013-01-03 07:06:00,
2013-01-03 02:22:00,51.6,50.8,29.98,East,90,2.2,-999.0,97,-99.99,,,0.00,Acu-Link.com,2013-01-03 07:22:00,
2013-01-03 02:37:00,51.6,50.8,29.98,NE,45,2.2,-999.0,97,-99.99,,,0.00,Acu-Link.com,2013-01-03 07:37:00,
2013-01-03 02:52:00,51.6,50.8,29.99,ENE,67,2.7,-999.0,97,-99.99,,,0.00,Acu-Link.com,2013-01-03 07:52:00,
2013-01-03 03:08:00,51.6,50.8,29.99,ENE,67,4.7,-999.0,97,-99.99,,,0.00,Acu-Link.com,2013-01-03 08:08:00,
2013-01-03 03:23:00,51.6,50.8,30.00,ENE,67,4.2,-999.0,97,-99.99,,,0.00,Acu-Link.com,2013-01-03 08:23:00,
2013-01-03 03:38:00,51.6,50.8,29.99,NE,45,4.2,-999.0,97,-99.99,,,0.00,Acu-Link.com,2013-01-03 08:38:00,
2013-01-03 03:54:00,51.6,50.8,29.99,NE,45,3.2,-999.0,97,-99.99,,,0.00,Acu-Link.com,2013-01-03 08:54:00,
2013-01-03 04:09:00,51.4,50.6,29.99,SE,135,3.2,-999.0,97,-99.99,,,0.00,Acu-Link.com,2013-01-03 09:09:00,
2013-01-03 04:24:00,51.4,50.6,30.00,ESE,112,3.7,-999.0,97,-99.99,,,0.00,Acu-Link.com,2013-01-03 09:24:00,
2013-01-03 04:39:00,51.4,50.6,29.99,ESE,112,4.2,-999.0,97,-99.99,,,0.00,Acu-Link.com,2013-01-03 09:39:00,
2013-01-03 04:55:00,51.3,50.5,29.99,NE,45,6.3,-999.0,97,-99.99,,,0.00,Acu-Link.com,2013-01-03 09:55:00,
2013-01-03 05:12:00,51.3,50.5,29.99,ENE,67,2.7,-999.0,97,-99.99,,,0.00,Acu-Link.com,2013-01-03 10:12:00,
2013-01-03 05:27:00,51.1,50.3,30.00,ENE,67,4.2,-999.0,97,-99.99,,,0.00,Acu-Link.com,2013-01-03 10:27:00,
2013-01-03 05:43:00,51.1,50.3,30.01,ENE,67,2.7,-999.0,97,-99.99,,,0.00,Acu-Link.com,2013-01-03 10:43:00,
2013-01-03 05:58:00,50.9,50.1,30.00,NNW,337,1.7,-999.0,97,-99.99,,,0.00,Acu-Link.com,2013-01-03 10:58:00,
2013-01-03 06:13:00,50.9,50.1,30.01,NE,45,3.7,-999.0,97,-99.99,,,0.00,Acu-Link.com,2013-01-03 11:13:00,
2013-01-03 06:29:00,50.7,49.6,30.04,NNE,22,2.2,-999.0,96,-99.99,,,0.00,Acu-Link.com,2013-01-03 11:29:00,
2013-01-03 06:44:00,50.7,49.6,30.04,NE,45,1.7,-999.0,96,-99.99,,,0.00,Acu-Link.com,2013-01-03 11:44:00,
2013-01-03 06:59:00,50.7,49.6,30.04,NE,45,2.7,-999.0,96,-99.99,,,0.00,Acu-Link.com,2013-01-03 11:59:00,
2013-01-03 07:15:00,50.5,49.4,30.05,NNE,22,3.2,-999.0,96,-99.99,,,0.00,Acu-Link.com,2013-01-03 12:15:00,
2013-01-03 07:30:00,50.5,49.7,30.05,NE,45,3.7,-999.0,97,-99.99,,,0.00,Acu-Link.com,2013-01-03 12:30:00,
2013-01-03 07:45:00,50.5,49.7,30.04,ENE,67,3.7,-999.0,97,-99.99,,,0.00,Acu-Link.com,2013-01-03 12:45:00,
2013-01-03 08:00:00,50.4,49.9,30.06,NNE,22,2.7,-999.0,98,-99.99,,,0.01,Acu-Link.com,2013-01-03 13:00:00,
2013-01-03 08:16:00,50.0,49.7,30.05,ESE,112,2.7,-999.0,99,-99.99,,,0.02,Acu-Link.com,2013-01-03 13:16:00,
2013-01-03 08:31:00,49.8,49.5,30.05,ENE,67,3.7,-999.0,99,-99.99,,,0.04,Acu-Link.com,2013-01-03 13:31:00,
2013-01-03 08:47:00,49.8,49.5,30.05,NE,45,2.7,-999.0,99,-99.99,,,0.05,Acu-Link.com,2013-01-03 13:47:00,
2013-01-03 09:02:00,49.8,49.5,30.03,East,90,5.3,-999.0,99,-99.99,,,0.05,Acu-Link.com,2013-01-03 14:02:00,
2013-01-03 09:18:00,49.6,49.3,30.05,ENE,67,4.2,-999.0,99,-99.99,,,0.05,Acu-Link.com,2013-01-03 14:18:00,
2013-01-03 09:35:00,49.8,49.5,30.04,ENE,67,2.7,-999.0,99,-99.99,,,0.06,Acu-Link.com,2013-01-03 14:35:00,
2013-01-03 09:51:00,50.4,50.1,30.04,ESE,112,4.7,-999.0,99,-99.99,,,0.06,Acu-Link.com,2013-01-03 14:51:00,
2013-01-03 10:06:00,50.5,50.2,30.05,NE,45,3.2,-999.0,99,-99.99,,,0.06,Acu-Link.com,2013-01-03 15:06:00,
2013-01-03 10:21:00,50.7,50.4,30.07,ENE,67,0.0,-999.0,99,-99.99,,,0.06,Acu-Link.com,2013-01-03 15:21:00,
2013-01-03 10:36:00,51.3,51.0,30.07,NE,45,1.1,-999.0,99,-99.99,,,0.06,Acu-Link.com,2013-01-03 15:36:00,
2013-01-03 10:52:00,51.3,51.0,30.09,West,270,2.2,-999.0,99,-99.99,,,0.06,Acu-Link.com,2013-01-03 15:52:00,
2013-01-03 11:07:00,51.1,50.8,30.09,WNW,292,3.7,-999.0,99,-99.99,,,0.08,Acu-Link.com,2013-01-03 16:07:00,
2013-01-03 11:22:00,51.1,50.8,30.09,WNW,292,2.2,-999.0,99,-99.99,,,0.09,Acu-Link.com,2013-01-03 16:22:00,
2013-01-03 11:38:00,51.6,51.3,30.08,NNW,337,0.0,-999.0,99,-99.99,,,0.10,Acu-Link.com,2013-01-03 16:38:00,
2013-01-03 11:53:00,51.8,51.5,30.07,NE,45,0.0,-999.0,99,-99.99,,,0.11,Acu-Link.com,2013-01-03 16:53:00,
2013-01-03 12:09:00,52.0,51.7,30.06,East,90,0.0,-999.0,99,-99.99,,,0.13,Acu-Link.com,2013-01-03 17:09:00,
2013-01-03 12:24:00,52.3,52.0,30.05,East,90,0.0,-999.0,99,-99.99,,,0.14,Acu-Link.com,2013-01-03 17:24:00,
2013-01-03 12:39:00,52.7,52.2,30.04,ENE,67,1.7,-999.0,98,-99.99,,,0.14,Acu-Link.com,2013-01-03 17:39:00,
2013-01-03 12:55:00,52.5,52.0,30.04,ENE,67,0.0,-999.0,98,-99.99,,,0.15,Acu-Link.com,2013-01-03 17:55:00,
2013-01-03 13:10:00,52.5,52.0,30.03,WNW,292,0.0,-999.0,98,-99.99,,,0.15,Acu-Link.com,2013-01-03 18:10:00,
2013-01-03 13:25:00,52.5,52.0,30.03,West,270,0.0,-999.0,98,-99.99,,,0.17,Acu-Link.com,2013-01-03 18:25:00,
2013-01-03 13:41:00,53.1,52.5,30.03,West,270,3.2,-999.0,98,-99.99,,,0.17,Acu-Link.com,2013-01-03 18:41:00,
2013-01-03 13:56:00,52.9,52.1,30.04,West,270,3.7,-999.0,97,-99.99,,,0.18,Acu-Link.com,2013-01-03 18:56:00,
2013-01-03 14:11:00,53.1,52.5,30.03,West,270,2.2,-999.0,98,-99.99,,,0.18,Acu-Link.com,2013-01-03 19:11:00,
2013-01-03 14:58:00,53.2,52.9,30.03,NW,315,4.7,-999.0,99,-99.99,,,0.18,Acu-Link.com,2013-01-03 19:58:00,
2013-01-03 15:13:00,53.1,52.8,30.03,West,270,2.7,-999.0,99,-99.99,,,0.18,Acu-Link.com,2013-01-03 20:13:00,
2013-01-03 15:28:00,53.2,52.9,30.03,West,270,3.2,-999.0,99,-99.99,,,0.19,Acu-Link.com,2013-01-03 20:28:00,
2013-01-03 15:43:00,53.1,52.8,30.04,WNW,292,2.7,-999.0,99,-99.99,,,0.19,Acu-Link.com,2013-01-03 20:43:00,
2013-01-03 15:59:00,52.9,52.6,30.04,West,270,1.7,-999.0,99,-99.99,,,0.19,Acu-Link.com,2013-01-03 20:59:00,
2013-01-03 16:14:00,52.9,52.6,30.04,West,270,1.7,-999.0,99,-99.99,,,0.19,Acu-Link.com,2013-01-03 21:14:00,
2013-01-03 16:29:00,52.9,52.6,30.03,NE,45,0.0,-999.0,99,-99.99,,,0.20,Acu-Link.com,2013-01-03 21:29:00,
2013-01-03 16:45:00,52.9,52.6,30.03,ESE,112,0.0,-999.0,99,-99.99,,,0.21,Acu-Link.com,2013-01-03 21:45:00,
2013-01-03 17:00:00,52.7,52.4,30.03,ESE,112,3.7,-999.0,99,-99.99,,,0.22,Acu-Link.com,2013-01-03 22:00:00,
2013-01-03 17:16:00,52.5,52.2,30.04,NNW,337,2.2,-999.0,99,-99.99,,,0.22,Acu-Link.com,2013-01-03 22:16:00,
2013-01-03 17:31:00,52.5,52.2,30.06,WNW,292,2.7,-999.0,99,-99.99,,,0.23,Acu-Link.com,2013-01-03 22:31:00,
2013-01-03 17:46:00,52.3,52.0,30.06,West,270,2.2,-999.0,99,-99.99,,,0.24,Acu-Link.com,2013-01-03 22:46:00,
2013-01-03 18:01:00,52.3,52.0,30.06,SSW,202,0.0,-999.0,99,-99.99,,,0.24,Acu-Link.com,2013-01-03 23:01:00,
2013-01-03 18:17:00,52.3,52.0,30.08,West,270,3.7,-999.0,99,-99.99,,,0.24,Acu-Link.com,2013-01-03 23:17:00,
2013-01-03 18:32:00,50.5,50.2,30.10,West,270,5.8,-999.0,99,-99.99,,,0.24,Acu-Link.com,2013-01-03 23:32:00,
2013-01-03 18:48:00,50.0,49.7,30.11,West,270,7.3,-999.0,99,-99.99,,,0.24,Acu-Link.com,2013-01-03 23:48:00,
2013-01-03 19:03:00,49.6,49.1,30.09,West,270,5.3,-999.0,98,-99.99,,,0.24,Acu-Link.com,2013-01-04 00:03:00,
2013-01-03 19:18:00,49.6,49.3,30.10,WNW,292,5.8,-999.0,99,-99.99,,,0.24,Acu-Link.com,2013-01-04 00:18:00,
2013-01-03 19:33:00,49.5,49.2,30.11,West,270,4.2,-999.0,99,-99.99,,,0.24,Acu-Link.com,2013-01-04 00:33:00,
2013-01-03 19:49:00,49.5,49.2,30.11,West,270,5.8,-999.0,99,-99.99,,,0.24,Acu-Link.com,2013-01-04 00:49:00,
2013-01-03 20:04:00,49.5,49.2,30.12,West,270,3.7,-999.0,99,-99.99,,,0.24,Acu-Link.com,2013-01-04 01:04:00,
2013-01-03 20:20:00,49.5,49.2,30.12,West,270,4.2,-999.0,99,-99.99,,,0.24,Acu-Link.com,2013-01-04 01:20:00,
2013-01-03 20:35:00,49.5,49.2,30.12,WNW,292,1.7,-999.0,99,-99.99,,,0.24,Acu-Link.com,2013-01-04 01:35:00,
2013-01-03 20:50:00,49.5,49.2,30.12,West,270,3.2,-999.0,99,-99.99,,,0.24,Acu-Link.com,2013-01-04 01:50:00,
2013-01-03 21:06:00,49.5,49.2,30.12,West,270,2.2,-999.0,99,-99.99,,,0.24,Acu-Link.com,2013-01-04 02:06:00,
2013-01-03 21:21:00,49.5,49.2,30.13,West,270,3.7,-999.0,99,-99.99,,,0.24,Acu-Link.com,2013-01-04 02:21:00,
2013-01-03 21:36:00,49.5,49.2,30.13,NW,315,2.2,-999.0,99,-99.99,,,0.24,Acu-Link.com,2013-01-04 02:36:00,
2013-01-03 21:52:00,49.3,49.0,30.14,NW,315,6.3,-999.0,99,-99.99,,,0.24,Acu-Link.com,2013-01-04 02:52:00,
2013-01-03 22:07:00,48.9,48.6,30.13,WNW,292,3.7,-999.0,99,-99.99,,,0.24,Acu-Link.com,2013-01-04 03:07:00,
2013-01-03 22:22:00,48.9,48.6,30.13,NW,315,3.7,-999.0,99,-99.99,,,0.24,Acu-Link.com,2013-01-04 03:22:00,
2013-01-03 22:37:00,48.7,48.4,30.14,WNW,292,3.2,-999.0,99,-99.99,,,0.24,Acu-Link.com,2013-01-04 03:37:00,
2013-01-03 22:53:00,48.7,48.4,30.13,NNW,337,2.7,-999.0,99,-99.99,,,0.24,Acu-Link.com,2013-01-04 03:53:00,
2013-01-03 23:08:00,48.9,48.6,30.13,NW,315,2.7,-999.0,99,-99.99,,,0.24,Acu-Link.com,2013-01-04 04:08:00,
2013-01-03 23:23:00,49.1,48.8,30.14,NE,45,5.3,-999.0,99,-99.99,,,0.24,Acu-Link.com,2013-01-04 04:23:00,
2013-01-03 23:39:00,48.7,48.4,30.14,NNE,22,6.3,-999.0,99,-99.99,,,0.24,Acu-Link.com,2013-01-04 04:39:00,
2013-01-03 23:54:00,48.4,48.1,30.15,NNE,22,8.9,-999.0,99,-99.99,,,0.24,Acu-Link.com,2013-01-04 04:54:00,